Regional Weather Roundup
Issued by NWS

Home | Current Version | Previous Version | Graphics & Text | Print | Product List | Glossary On
Versions: 1 2 3 4 5 6 7 8 9 10 11 12 13 14 15 16 17 18 19 20 21 22 23 24 25 26 27 28 29 30 31 32 33 34 35 36 37 38 39 40 41 42 43 44 45 46 47 48 49 50
000
ASUS43 KMPX 201301
RWRMN
WEATHER ROUNDUP FOR MINNESOTA
NATIONAL WEATHER SERVICE TWIN CITIES/CHANHASSEN MN
700 AM CST FRI JAN 20 2017


NOTE: "FAIR" INDICATES FEW OR NO CLOUDS BELOW 12,000 FEET WITH NO
SIGNIFICANT WEATHER AND/OR OBSTRUCTIONS TO VISIBILITY. N/A MEANS
CURRENT SKY AND/OR WEATHER CONDITIONS ARE NOT AVAILABLE.

MNZ060>063-068>070-201400-
   Twin Cities Metro

CITY           SKY/WX    TMP DP  RH WIND       PRES   REMARKS
TWIN CITIES    DRIZZLE   35  33  92 SE7       29.62F FOG     WCI  29
ST PAUL        CLOUDY    35  35 100 SE3       29.64S FOG
CRYSTAL        CLOUDY    36  33  89 E5        29.61S FOG
BLAINE         CLOUDY    37  37 100 SE6       29.62S FOG
LAKEVILLE      FOG       32  32 100 E3        29.62S VSB 1
EDEN PRAIRIE   CLOUDY    35  34  96 SE7       29.60F FOG     WCI  29
SOUTH ST PAUL  CLOUDY    35  35  99 CALM      29.63S FOG
LAKE ELMO      MIX PCPN  36  36 100 SE5       29.64S
$$
MNZ001>005-007-008-013>017-022>024-027-028-201400-
   Northwest Minnesota

CITY           SKY/WX    TMP DP  RH WIND       PRES   REMARKS
BEMIDJI        CLOUDY    33  33 100 E6        29.58S FOG     WCI  27
HALLOCK        CLOUDY    36  34  93 SE13      29.51S FOG
ROSEAU         CLOUDY    36  30  80 SE8       29.56S HAZE
WARROAD        CLOUDY    36  30  80 SE6       29.57F FOG
THIEF RVR FALL CLOUDY    34  34 100 SE13      29.55S WCI  25
CROOKSTON      CLOUDY    36  36 100 SE13      29.54R
FOSSTON        CLOUDY    34  32  93 SE8       29.56S FOG     WCI  27
DETROIT LAKES  CLOUDY    34  34 100 SE9       29.55F FOG     WCI  26
MOORHEAD       CLOUDY    36  34  93 SE9       29.54S FOG
PARK RAPIDS    FOG       34  32  92 SE6       29.56F VSB 1   WCI  29
MAHNOMEN       CLOUDY    34  33  98 SE9       29.54F WCI  26
$$
MNZ006-009>011-018-025>026-201400-
   North Central Minnesota

CITY           SKY/WX    TMP DP  RH WIND       PRES   REMARKS
BAUDETTE       FOG       34  33  96 SE7       29.59S VSB 1   WCI  28
FLAG ISLAND    CLOUDY    34  34 100 SE12      29.57F FOG     WCI  25
INTL FALLS     FOG       33  32  96 SE3       29.62S VSB 1
WASKISH        CLOUDY    36  34  93 E3        29.59F FOG
BIG FORK       FOG       34  32  93 CALM      29.61F VSB 3/4
LONGVILLE      FOG       34  32  93 CALM      29.59F VSB 1/2
GRAND RAPIDS   CLOUDY    32  31  96 E5        29.63S FOG     WCI  27
CRANE LAKE     CLOUDY    30  30 100 CALM      29.66R FOG
ORR            CLOUDY    32  30  93 CALM      29.61S
COOK           CLOUDY    28  28 100 CALM      29.64S FOG
WALKER         FOG       32  32 100 CALM      29.59S VSB 1/2
$$
MNZ012-019>021-037-201400-
   Northeast Minnesota

CITY           SKY/WX    TMP DP  RH WIND       PRES   REMARKS
DULUTH         CLOUDY    34  33  96 E6        29.64S FOG     WCI  29
ELY            FOG       23  23 100 CALM      29.65R VSB 1/2
HIBBING        CLOUDY    29  29 100 CALM      29.63S FOG
EVELETH        CLOUDY    25  24  96 CALM      29.66R
DULUTH HARBOR  FOG       34  32  93 CALM      29.68S VSB 1/4
TWO HARBORS    CLOUDY    34  28  80 CALM      29.66R HAZE
SILVER BAY     CLOUDY    28  28 100 CALM      29.66S FOG
GRAND MARAIS     N/A     31  30  96 N3        29.69F
G MARAIS ARPRT CLOUDY    25  21  86 N5        29.66S FOG     WCI  19
$$
MNZ029>031-032-039>041-046>048-054>057-064-201400-
   West Central Minnesota

CITY           SKY/WX    TMP DP  RH WIND       PRES   REMARKS
FERGUS FALLS   CLOUDY    34  34 100 SE8       29.58F FOG     WCI  27
WHEATON        CLOUDY    41  41 100 SE13      29.55F FOG
MORRIS         CLOUDY    34  34 100 SE13      29.53F FOG     WCI  25
ALEXANDRIA     CLOUDY    33  33 100 SE10      29.56F WCI  25
ELBOW LAKE     FOG       33  33 100 SE7       29.54F VSB 1   WCI  27
WADENA         LGT RAIN  32  32 100 E7        29.56S WCI  26
GLENWOOD       FOG       34  34 100 SE7       29.56F VSB 1   WCI  28
APPLETON       CLOUDY    36  34  93 SE9       29.55F FOG
BENSON         CLOUDY    36  32  87 S10         N/A
ORTONVILLE     DRZL/FOG  34  30  86 SE7       29.53S VSB 1/2 WCI  28
MADISON        CLOUDY    36  36 100 SE10      29.54F FOG
WILLMAR        CLOUDY    34  34 100 SE7       29.57F FOG     WCI  28
$$
MNZ033>034-036-042>043-049>051-058-059-201400-
   Central Minnesota

CITY           SKY/WX    TMP DP  RH WIND       PRES   REMARKS
ST CLOUD       FOG       34  34 100 SE5       29.59F VSB 1   WCI  30
SAUK CENTRE    DRIZZLE   32  32 100 E6        29.57F WCI  27
PAYNESVILLE    DRIZZLE   33  33 100 SE5       29.58F WCI  29
AITKIN         MIX PCPN  36  34  93 CALM      29.60S VSB 1/2
PINE RIVER     LGT RAIN  34  34 100 E3        29.63F VSB 1/2
BRAINERD       LGT RAIN  34  34 100 SE5       29.60S FOG     WCI  30
STAPLES        CLOUDY    34  34 100 CALM      29.57F FOG
LONG PRAIRIE   CLOUDY    32  32 100 E6        29.58S FOG     WCI  26
LITTLE FALLS   MIX PCPN  32  32 100 SE5       29.59F WCI  27
LITCHFIELD     CLOUDY    36  34  93 CALM      29.58F FOG
BUFFALO        CLOUDY    34  33  95 E5        29.61F FOG     WCI  30
MAPLE LAKE     CLOUDY    35  35  99 MISG      29.61S FOG
HUTCHINSON     FOG       34  34 100 E5        29.59S VSB 3/4 WCI  30
$$
MNZ037-044-045-052-053-201400-
   East Central Minnesota

CITY           SKY/WX    TMP DP  RH WIND       PRES   REMARKS
PRINCETON      FOG       36  34  93 E3        29.62S VSB 1/2
MORA           DRZL/FOG  32  32 100 E3        29.65R VSB 1
CAMBRIDGE      DRIZZLE   37  32  81 E3        29.61S
RUSH CITY      RAIN      34  34 100 CALM      29.63F
MOOSE LAKE     CLOUDY    36  34  93 CALM      29.62S FOG
HINCKLEY       CLOUDY    36  36 100 E7        29.64R FOG
CLOQUET        MIX PCPN  34  32  93 SE5       29.64S WCI  30
MCGREGOR       CLOUDY    34  34 100 E3        29.62S VSB 1/2
$$
MNZ071>073-080-081-089-090-097-098-201400-
   Southwest Minnesota

CITY           SKY/WX    TMP DP  RH WIND       PRES   REMARKS
MONTEVIDEO     CLOUDY    34  34 100 S8        29.57F FOG     WCI  27
GRANITE FALLS  CLOUDY    35  34  99 E9        29.57F FOG     WCI  27
CANBY          CLOUDY    35  35  99 CALM      29.55R FOG
MARSHALL       CLOUDY    34  34 100 SE9       29.55S FOG     WCI  27
REDWOOD FALLS  CLOUDY    34  32  92 SE7       29.57F FOG     WCI  28
OLIVIA         CLOUDY    34  34 100 SE7       29.57S FOG     WCI  28
PIPESTONE      CLOUDY    36  36 100 SE8       29.51S FOG
WINDOM         FOG       34  34 100 SE5       29.56F VSB 1   WCI  30
WORTHINGTON    FOG       33  33 100 SE8       29.54F VSB 1/2 WCI  26
JACKSON        FOG       32  32 100 SE7       29.56F VSB 1   WCI  26
TRACY          CLOUDY    35  35 100 SE6       29.55F FOG     WCI  30
SLAYTON        FOG       33  33 100 SE8       29.55S VSB 3/4 WCI  26
$$
MNZ065>067-074>077-082>085-091>093-201400-
   South Central Minnesota

CITY           SKY/WX    TMP DP  RH WIND       PRES   REMARKS
MANKATO        CLOUDY    34  33  96 S7        29.60S FOG     WCI  28
NEW ULM        CLOUDY    34  34 100 S7        29.58F FOG     WCI  28
ST JAMES       CLOUDY    34  34 100 SE5       29.58F FOG     WCI  30
FAIRMONT       CLOUDY    33  33 100 S7        29.58F FOG     WCI  27
GLENCOE        CLOUDY    35  35 100 CALM      29.59S FOG
FARIBAULT      CLOUDY    34  34 100 SE5       29.62S FOG     WCI  30
OWATONNA       CLOUDY    34  34 100 SE6       29.61S FOG     WCI  29
WASECA         CLOUDY    32  32 100 SE6       29.62R FOG     WCI  26
ALBERT LEA     FOG       34  34 100 SE6       29.60S VSB 1/2 WCI  29
$$
MNZ078>079-086>088-094>096-201400-
   Southeast Minnesota

CITY           SKY/WX    TMP DP  RH WIND       PRES   REMARKS
ROCHESTER      CLOUDY    33  33 100 SE8       29.62S FOG     WCI  26
RED WING       CLOUDY    36  34  93 SE5       29.63S FOG
STANTON        CLOUDY    36  34  93 CALM      29.61S FOG
DODGE CENTER   FOG       34  34 100 CALM      29.61S VSB 1
WINONA         CLOUDY    34  34 100 SE3       29.66R FOG
AUSTIN         FOG       34  32  93 CALM      29.61S VSB 3/4
PRESTON        FOG       33  32  96 SE5       29.62S VSB 3/4 WCI  28
$$
ABBREVIATIONS USED IN REMARKS
   TC - TEMPERATURES IN CELSIUS
  WCI - WIND CHILL INDEX
   HX - HEAT INDEX
  VSB - VISIBILITY
$$



USA.gov is the U.S. government's official web portal to all federal, state and local government web resources and services.